EHI
0 0 0 0 0 0 0 0 0 0 0 0 0 0 0 0 0 0 0 0 0 0 0 0 0 0 0 0 1 3 2 0 1 1 1 0 0 0 0 1 1 1 0 0
0 0 0 0 0 0 0 0 0 0 0 0 0 0 0 0 0 0 0 0 0 0 0 0 0 0 0 0 1 2 2 0 0 1 1 1 0 0 0 1 2 2 1 0
0 0 0 0 0 0 0 0 0 0 0 0 0 0 0 0 0 0 0 0 0 0 0 0 0 0 0 0 0 1 1 0 0 1 1 1 1 0 0 1 2 2 1 0
0 0 0 0 0 0 0 0 0 0 0 0 0 0 0 0 0 0 0 0 0 0 0 0 0 0 0 0 0 0 0 0 0 0 1 2 2 1 0 0 1 1 0 0
0 0 0 0 0 0 0 0 0 0 0 0 0 0 0 0 0 0 0 0 0 0 0 0 0 0 0 0 0 0 0 0 0 0 0 1 1 1 0 0 0 0 0 0
0 0 0 0 0 0 0 0 0 0 0 0 0 0 0 0 0 0 0 0 0 0 0 0 0 0 0 0 0 0 0 0 0 0 0 0 0 0 0 0 0 0 0 0
0 0 0 0 0 0 0 0 0 0 0 0 0 0 0 0 0 0 0 0 0 0 0 0 0 0 0 0 0 0 0 0 0 0 0 0 0 0 0 0 0 0 0 0
0 0 0 0 0 0 0 0 0 0 0 0 0 0 0 0 0 0 0 0 0 0 0 0 0 0 0 0 0 0 0 0 0 0 0 0 0 0 0 0 0 0 0 0
0 0 0 0 0 0 0 0 0 0 0 0 0 0 0 0 0 0 0 0 0 0 0 0 0 0 0 0 0 0 0 0 0 0 0 0 0 0 0 0 0 0 0 0
0 0 0 0 0 0 0 0 0 0 0 0 0 0 0 0 0 0 0 0 0 0 0 0 0 0 0 0 0 0 0 0 0 0 0 0 0 0 0 0 0 0 0 0
0 0 0 0 0 0 0 0 0 0 0 0 0 0 0 0 0 0 0 0 0 0 0 0 0 0 0 0 0 0 0 0 0 0 0 1 0 0 0 0 0 0 0 0
0 0 0 0 0 0 0 0 0 0 0 0 0 0 0 0 0 0 0 0 0 0 0 0 0 0 0 0 0 0 0 0 0 0 0 0 0 0 0 0 0 0 0 0
0 0 0 0 0 0 0 0 0 0 0 0 0 0 0 0 0 0 0 0 0 0 0 0 0 0 0 0 0 0 0 0 0 0 0 0 0 0 0 0 0 0 0 0
0 0 0 0 0 0 0 0 0 0 0 0 0 0 0 0 0 0 0 0 0 0 0 0 0 0 0 0 0 0 0 0 0 0 0 0 0 0 0 0 0 0 0 0
0 0 0 0 0 0 0 0 0 0 0 0 0 0 0 0 0 0 0 0 0 0 0 0 0 0 0 0 0 0 0 0 0 0 0 0 0 0 0 0 0 0 0 0
0 0 0 0 0 0 0 0 0 0 0 0 0 0 0 0 0 0 0 0 0 0 0 0 0 0 0 0 0 0 0 0 0 0 0 0 0 0 0 0 1 1 0 0
0 0 0 0 0 0 0 0 0 0 0 0 0 0 0 0 0 0 0 0 0 0 0 0 0 0 0 0 0 0 0 0 0 0 0 0 0 0 0 0 1 1 1 0
0 0 0 0 0 0 0 0 0 0 0 0 0 0 0 0 0 0 0 0 0 0 0 0 0 0 0 0 0 0 0 0 0 0 0 0 0 0 0 0 1 1 1 1
0 0 0 0 0 0 0 0 0 0 0 0 0 0 0 0 0 0 0 0 0 0 0 0 0 0 0 0 0 0 0 0 0 0 0 0 0 0 0 0 0 0 0 0
0 0 0 0 0 0 0 0 0 0 0 0 0 0 0 0 0 0 0 0 0 0 0 0 0 0 0 0 0 0 0 0 0 0 0 0 0 0 0 0 0 0 0 0
0 0 0 0 0 0 0 0 0 0 0 0 0 0 0 0 0 0 0 0 0 0 0 0 0 0 0 0 0 0 0 0 0 0 0 0 0 0 0 0 0 0 0 0
0 0 0 0 0 0 0 0 0 0 0 0 0 0 0 0 0 0 0 0 0 0 0 0 0 0 0 0 0 0 0 0 0 0 0 0 0 0 0 0 0 0 0 0
0 0 0 0 0 0 0 0 0 0 0 0 0 0 0 0 0 0 0 0 0 0 0 0 0 0 0 0 0 0 0 0 0 0 0 0 0 0 0 0 0 0 0 0
0 0 0 0 0 0 0 0 0 0 0 0 0 0 0 0 0 0 0 0 0 0 0 0 0 0 0 0 0 0 0 0 0 0 0 0 0 0 0 0 0 0 0 0
0 0 0 0 0 0 0 0 0 0 0 0 0 0 0 0 0 0 0 0 0 0 0 0 0 0 0 0 0 0 0 0 0 0 0 0 0 0 0 0 0 0 0 0
0 0 0 0 0 0 0 0 0 0 0 0 0 0 0 0 0 0 0 0 0 0 0 0 0 0 0 0 0 0 0 0 0 0 0 0 0 0 0 0 0 0 0 0
Wind_Speed
2 3 4 5 6 9 11 13 16 17 14 12 14 17 15 11 10 9 7 6 6 7 7 7 7 5 5 5 6 8 9 9 8 6 7 7 7 7 7 7 10 11 11 12
4 4 5 7 8 9 12 14 15 14 11 13 15 17 15 10 7 5 5 5 6 6 7 7 7 5 6 6 6 7 8 9 8 7 7 6 6 6 7 7 9 10 11 12
7 6 7 7 8 9 11 11 12 16 16 11 12 11 9 7 4 3 4 4 4 5 5 6 6 5 5 6 7 6 8 8 7 8 6 6 5 5 6 8 9 10 11 12
6 5 6 7 8 9 10 10 13 15 12 7 6 8 7 7 4 3 3 4 4 4 3 5 6 5 6 6 7 7 7 8 9 8 8 9 8 8 8 7 7 10 11 12
6 6 7 8 9 9 8 13 15 15 12 10 9 7 6 4 4 3 2 3 3 3 2 4 5 5 5 5 6 7 7 7 8 8 10 10 8 7 6 7 9 10 10 12
9 6 4 5 8 8 11 12 12 10 5 5 5 4 4 2 4 4 2 2 2 2 1 2 4 4 4 3 4 5 7 7 8 9 10 11 11 9 9 10 10 9 8 10
7 4 1 2 7 7 9 7 5 5 2 4 6 4 3 3 4 4 3 2 1 1 1 2 4 4 3 3 4 5 5 6 8 9 10 11 11 11 11 10 10 10 9 9
6 6 3 4 5 6 7 5 3 4 5 7 8 4 2 3 4 5 5 4 3 3 2 3 4 4 3 3 4 4 4 5 7 8 9 9 10 9 9 10 9 10 8 9
5 7 7 8 6 4 5 3 4 5 7 6 5 3 3 5 7 8 7 7 5 5 4 3 4 4 3 3 3 3 3 4 5 7 8 9 9 9 10 9 9 8 8 9
4 8 9 8 5 3 4 5 4 3 5 6 6 4 3 5 8 10 9 7 7 7 6 4 4 4 4 3 3 3 3 4 4 5 7 7 9 9 10 9 10 9 10 11
4 5 8 6 3 4 3 3 3 4 4 4 6 5 3 5 7 8 8 8 8 7 6 5 4 4 4 4 3 3 2 2 3 4 5 6 7 9 10 10 10 10 10 11
3 4 7 8 7 4 3 3 2 3 5 5 7 8 2 4 6 7 8 8 8 8 7 6 6 5 4 4 4 3 2 2 3 3 3 6 6 7 8 10 10 10 10 11
3 3 7 5 1 1 2 3 5 6 5 6 8 9 5 7 8 8 9 9 8 8 8 7 7 6 5 5 4 3 2 2 2 2 3 4 5 6 8 9 10 10 10 10
4 5 7 8 9 8 10 11 9 7 6 9 11 15 14 12 10 9 8 9 9 8 8 7 7 6 6 5 5 4 3 3 2 2 2 3 5 6 7 7 8 9 9 10
3 6 9 14 16 16 17 17 13 12 12 12 15 16 15 12 10 9 8 9 10 10 9 8 7 7 6 5 5 3 3 3 2 2 2 3 3 4 4 5 6 7 8 8
3 6 8 13 14 14 18 18 15 14 13 14 16 18 11 10 9 8 8 9 10 10 9 8 8 7 6 6 5 4 3 3 2 2 2 3 2 2 3 4 5 6 7 7
4 4 6 9 9 11 12 10 10 9 9 9 12 12 10 10 9 9 8 8 9 10 10 10 9 7 6 5 5 5 4 3 3 2 2 3 2 3 3 3 4 5 6 7
7 5 5 7 7 9 8 3 4 7 8 7 8 7 7 9 10 7 6 7 8 9 10 10 9 8 6 5 5 4 4 3 3 3 3 3 2 2 2 3 3 4 5 6
10 7 5 4 7 12 8 5 3 4 7 5 5 8 8 9 9 6 5 6 8 8 9 9 8 8 7 5 5 4 4 3 3 3 3 3 2 2 2 3 4 3 4 5
7 7 6 5 7 8 5 1 2 3 6 2 4 6 7 7 7 7 8 9 9 9 8 8 8 8 7 5 4 4 5 4 4 4 4 3 3 3 3 4 4 3 3 4
5 6 10 10 9 10 6 1 2 2 5 4 5 5 6 6 6 8 9 10 9 9 9 9 8 7 7 5 5 5 4 5 4 4 3 3 3 3 4 4 3 3 3 3
8 7 8 7 9 11 2 2 3 6 4 5 5 6 7 8 9 9 10 10 10 10 10 9 8 8 7 5 5 5 5 4 4 3 3 3 3 3 3 3 3 4 4 4
9 9 6 9 10 6 2 4 5 5 6 5 5 6 7 8 9 10 10 10 10 10 9 8 8 9 7 6 5 5 5 4 3 3 3 3 3 3 4 4 4 4 4 4
6 7 7 8 9 9 8 6 5 4 5 6 6 7 7 9 10 10 10 10 10 9 9 8 8 8 8 6 6 5 5 3 3 3 3 2 3 3 3 3 3 3 4 5
7 4 7 11 11 10 8 6 5 5 5 6 7 6 7 9 10 10 9 9 9 9 8 7 7 8 8 7 7 5 4 3 3 3 3 2 2 2 2 2 2 3 3 5
9 10 11 12 8 6 6 4 5 6 6 6 6 7 7 7 9 9 9 8 8 9 8 7 8 7 8 8 7 5 4 2 2 2 2 2 2 1 2 2 0 0 2 4
Wind_Direction
255 259 279 302 297 293 301 296 295 297 299 298 290 290 290 280 270 262 251 251 254 259 271 271 261 228 211 209 213 208 200 194 183 180 182 183 182 178 179 173 174 171 167 166
299 273 307 316 303 298 297 296 299 303 307 305 291 289 290 278 266 263 268 255 246 255 265 265 269 232 210 207 216 218 204 195 189 187 187 180 178 181 181 173 175 173 171 168
301 301 325 316 312 306 298 297 305 308 311 295 288 286 286 289 272 249 266 271 265 259 260 268 272 244 219 208 210 217 210 197 193 190 179 177 176 178 182 179 176 179 176 172
298 310 321 318 312 310 301 302 306 303 303 295 295 294 287 292 283 251 256 258 256 259 255 267 272 256 233 218 213 212 208 198 195 191 185 181 189 191 185 178 177 179 178 175
295 311 318 312 314 317 296 302 295 286 279 282 272 266 281 276 284 277 267 273 263 249 243 263 267 261 256 227 219 211 201 202 200 198 192 187 192 198 181 173 177 184 182 179
274 275 293 306 313 309 308 308 293 271 259 265 270 275 288 308 316 318 309 296 296 265 275 278 287 284 270 249 232 213 201 203 202 202 194 190 190 192 182 178 180 188 186 182
320 303 290 328 323 323 332 335 334 337 296 265 314 303 282 334 352 349 347 356 5 303 310 312 311 304 302 289 247 215 205 209 207 203 198 194 192 193 190 185 185 186 188 184
326 312 343 356 332 316 316 322 335 315 302 307 312 279 293 7 14 12 9 1 357 356 5 339 311 300 291 294 272 223 213 218 214 206 201 195 196 195 196 190 190 189 193 187
322 294 314 316 305 300 312 317 300 287 283 277 267 270 299 2 11 11 6 2 357 354 354 342 321 307 303 291 265 231 232 234 224 212 203 198 199 202 199 192 192 190 192 186
292 288 294 299 284 238 249 302 327 316 308 297 293 298 325 4 5 1 359 360 354 354 353 344 325 317 316 311 290 248 236 241 242 229 207 206 203 205 200 196 195 195 193 187
295 283 296 303 284 297 303 297 292 277 271 292 302 302 359 353 355 351 348 352 351 345 345 341 327 324 320 314 304 267 242 243 249 248 221 205 205 203 202 201 200 199 195 188
310 286 279 270 263 259 271 286 295 284 287 277 280 280 318 351 355 349 342 341 343 338 338 337 333 332 332 327 327 313 283 256 252 253 244 213 202 203 205 203 199 198 196 191
311 287 299 301 222 16 308 294 288 278 272 266 268 274 309 337 339 336 336 334 332 335 333 337 340 338 334 331 330 325 319 292 276 272 257 234 208 204 206 205 200 198 196 192
276 244 236 261 282 302 292 286 278 266 261 269 262 278 297 311 318 324 327 328 328 330 330 333 335 335 333 328 325 322 321 318 310 297 273 251 224 214 208 206 202 197 193 191
250 260 260 267 276 278 278 278 272 259 254 260 274 281 289 305 313 317 320 323 323 326 330 331 331 329 327 323 318 320 315 307 299 285 278 271 255 228 212 206 200 194 194 193
237 267 282 275 269 272 274 269 264 261 259 261 273 279 290 302 304 315 322 324 326 328 327 325 325 324 322 320 316 315 310 297 282 271 269 280 270 251 217 206 198 189 192 191
222 250 279 278 294 296 272 254 249 249 249 257 267 279 302 309 316 324 325 327 327 329 330 326 319 316 310 308 310 312 298 292 285 276 259 256 248 258 238 217 204 196 193 185
220 235 258 281 300 258 250 255 269 272 267 264 274 290 305 311 313 310 315 327 327 330 326 320 315 312 305 300 303 304 302 292 282 279 275 242 227 232 234 222 219 208 196 185
212 218 245 263 269 272 269 264 273 283 282 272 286 306 318 324 318 308 333 338 327 322 317 312 309 305 301 299 301 305 301 288 276 276 275 252 229 225 225 220 216 212 197 190
194 201 228 246 258 262 269 47 35 329 279 301 312 312 321 331 319 308 331 328 321 319 315 311 309 308 302 298 298 296 287 279 272 270 264 246 228 220 222 224 217 201 199 193
185 208 224 239 252 263 271 127 75 249 264 329 331 321 317 304 285 300 315 317 316 313 310 309 307 304 298 297 297 287 277 270 268 267 252 240 232 224 220 221 210 192 189 180
196 206 211 216 234 251 219 135 216 246 297 308 310 305 301 300 304 311 313 313 314 314 312 313 309 304 302 303 300 288 281 275 273 271 253 235 228 227 220 212 206 190 181 177
207 208 211 213 229 259 241 237 246 267 287 295 299 304 304 305 305 308 309 310 310 310 311 313 311 307 307 307 305 294 288 284 279 272 262 243 234 222 212 202 201 190 184 181
236 224 243 259 259 270 279 275 278 284 292 297 298 303 307 303 302 304 304 306 307 307 308 310 310 307 308 309 308 295 289 286 280 272 269 256 236 222 209 206 198 195 191 183
239 234 249 260 269 278 272 275 289 294 290 292 294 296 298 299 300 300 300 302 303 304 306 307 306 305 307 310 306 299 291 286 280 274 273 270 241 219 209 214 210 210 217 203
229 236 242 253 254 258 274 288 302 299 298 296 298 299 299 296 296 297 298 298 299 301 303 303 302 303 306 306 303 303 297 284 279 276 270 263 245 230 202 178 138 199 201 193